Location: *
(49.3500°N, 12.6000°E)
Time: 17:02:41
(UTC+00:00)

STARLINK-35 - Pass Details

Date: 18 October 2019
Orbit: 548 x 551 km, 53.0° (Epoch: 11 November)

Event Time Altitude Azimuth Distance (km) Brightness Sun altitude
Rises 18:41:49 0° 280° (W) 2,718 8.6 -24.7°
Reaches altitude 10° 18:44:06 10° 285° (WNW) 1,825 7.3 -25.0°
Enters shadow 18:47:37 46° 335° (NNW) 741 4.4 -25.6°
